Weather in Kossovo

Belarus     52°45′22″N   25°09′08″E
temp.,
°C
wind,
m/s
gust,
m/s
humid.,
%
clouds,
%
prec.,
mm/h
press.,
hPa
HPBL,
m
24 june, thu
thu2400:00+22se466697 1.3 101879
03:00+19s1185100 3.0 101712
06:00+19sse229199 1.1 101743
09:00+23sse348112 1.4 1017262
12:00+28s336528 0.0 1017675
15:00+30sse33585 0.0 10171182
18:00+30sse34642 0.0 10151181
21:00+25e11794 0.2 101411
25 june, fri
fri2500:00+23sse238270 0.3 101535
03:00+20nnw1195100 2.6 101326
06:00+20ese3698100 2.3 1013173
09:00+23sw458293 2.3 1013386
12:00+26sse4664100 0.0 1013517
15:00+29ssw3566100 0.0 10121223
18:00+25sw61086100 11.7 1010662
21:00+19e4992100 22.9 1012231
26 june, sat
sat2600:00+18sw3796100 0.5 1014146
03:00+18wnw689752 2.4 1014332
06:00+16sw229452 0.0 101566
09:00+18wnw4588100 0.0 1016555
12:00+19nw558198 0.1 1016780
15:00+20nw347798 0.1 1017906
18:00+19sse1184100 0.2 101640
21:00+18nw22860 0.6 101627
27 june, sun
sun2700:00+15nw34911 0.0 101752
03:00+14nnw34921 0.0 101756
06:00+14nw3493100 0.0 101775
09:00+18nw3481100 0.0 1018447
12:00+22nw3466100 0.0 10181252
15:00+23nnw4459100 0.1 10171549
18:00+22n4570100 0.0 1017671
21:00+19n22820 0.1 101723
28 june, mon
mon2800:00+16nnw34890 0.0 101856
03:00+15nnw34930 0.0 101850
06:00+15nnw23920 0.0 101854
09:00+20nnw23770 0.0 1018423
12:00+23nnw33637 0.0 10181313
15:00+25nnw445441 0.1 10171807
18:00+24nnw34590 0.0 10171462
21:00+21nnw11715 0.0 101711